Location: ?????????
(41.2286°N, 23.0068°E)
Time: 00:26:49
(UTC+00:00)

SL-16 R/B - Pass Details

Date: 08 November 2025
Orbit: 839 x 848 km, 71.0° (Epoch: 07 December)

Event Time Altitude Azimuth Distance (km) Brightness Sun altitude
Rises 04:29:14 0° 192° (SSW) 3,390 5.4 -7.7°
Reaches altitude 10° 04:31:41 10° 189° (S) 2,460 4.7 -7.2°
Maximum altitude 04:37:15 63° 109° (ESE) 943 2.9 -6.2°
Drops below altitude 10° 04:42:52 10° 30° (NNE) 2,478 4.8 -5.2°
Sets 04:45:20 0° 27° (NNE) 3,418 5.5 -4.8°
